This is the latest recevied weather packets stored in our database for station/object IZ5MMH-1. If no packets are shown the sender has not sent any weather packets the latest 10 day(s).
| Time | Temp. | Humidity | Pressure | Rain* | Wind** | Luminosity | Snow |
|---|---|---|---|---|---|---|---|
| 1787928297 | 34.44° C | 52% | 1015.2 hPa | - | - | - | - |
| 1787927697 | 34.44° C | 52% | 1015.1 hPa | - | - | - | - |
| 1787927096 | 34.44° C | 50% | 1015.1 hPa | - | - | - | - |
| 1787926496 | 35° C | 51% | 1015.1 hPa | - | - | - | - |
| 1787925896 | 35° C | 50% | 1015.4 hPa | - | - | - | - |
| 1787925296 | 35° C | 50% | 1015.2 hPa | - | - | - | - |
| 1787924696 | 35° C | 51% | 1015.5 hPa | - | - | - | - |
| 1787924097 | 35° C | 52% | 1015.6 hPa | - | - | - | - |
| 1787923497 | 34.44° C | 52% | 1015.5 hPa | - | - | - | - |
| 1787922896 | 35° C | 53% | 1015.6 hPa | - | - | - | - |
| 1787922296 | 34.44° C | 52% | 1015.8 hPa | - | - | - | - |
| 1787921696 | 33.89° C | 53% | 1015.9 hPa | - | - | - | - |
| 1787921096 | 34.44° C | 52% | 1016.3 hPa | - | - | - | - |
| 1787920496 | 34.44° C | 52% | 1016.4 hPa | - | - | - | - |
| 1787919897 | 34.44° C | 52% | 1016.3 hPa | - | - | - | - |
| 1787919296 | 34.44° C | 51% | 1015.9 hPa | - | - | - | - |
| 1787918696 | 35.56° C | 49% | 1015.8 hPa | - | - | - | - |
| 1787918096 | 35° C | 49% | 1016 hPa | - | - | - | - |
| 1787917496 | 35.56° C | 48% | 1016 hPa | - | - | - | - |
| 1787916896 | 35.56° C | 48% | 1016 hPa | - | - | - | - |
| 1787916296 | 35.56° C | 48% | 1015.9 hPa | - | - | - | - |
| 1787915696 | 35.56° C | 47% | 1015.9 hPa | - | - | - | - |
| 1787915096 | 35.56° C | 46% | 1016 hPa | - | - | - | - |
| 1787914495 | 36.11° C | 45% | 1016.1 hPa | - | - | - | - |
| 1787913896 | 36.67° C | 45% | 1016.1 hPa | - | - | - | - |
* Rain since midnight (hover to see other rain measurements)
** Current wind speed in m/s (hover to see current wind gust speed)